TimeEST,TemperatureF,Dew PointF,Humidity,Sea Level PressureIn,VisibilityMPH,Wind Direction,Wind SpeedMPH,Gust SpeedMPH,PrecipitationIn,Events,Conditions,WindDirDegrees,DateUTC
12:05 AM,37.4,33.8,87,29.93,10.0,South,17.3,28.8,N/A,,Mostly Cloudy,170,2014-02-05 05:05:00
12:31 AM,39.2,33.8,81,29.89,10.0,SSE,21.9,38.0,N/A,,Mostly Cloudy,160,2014-02-05 05:31:00
12:52 AM,39.9,34.0,79,29.89,10.0,SSE,17.3,32.2,N/A,,Mostly Cloudy,160,2014-02-05 05:52:00
1:52 AM,39.9,35.1,83,29.87,10.0,SSE,15.0,26.5,N/A,,Mostly Cloudy,160,2014-02-05 06:52:00
2:05 AM,39.2,33.8,81,29.85,10.0,SSE,12.7,26.5,N/A,,Overcast,160,2014-02-05 07:05:00
2:52 AM,39.9,36.0,86,29.86,10.0,South,6.9,-,N/A,,Overcast,180,2014-02-05 07:52:00
3:39 AM,42.8,37.4,81,29.80,10.0,SSE,9.2,-,N/A,,Mostly Cloudy,160,2014-02-05 08:39:00
3:52 AM,43.0,37.9,82,29.80,10.0,South,10.4,-,N/A,,Scattered Clouds,170,2014-02-05 08:52:00
4:18 AM,42.8,37.4,81,29.79,10.0,East,3.5,-,N/A,,Mostly Cloudy,90,2014-02-05 09:18:00
4:47 AM,42.8,37.4,81,29.78,10.0,SSE,8.1,-,N/A,,Mostly Cloudy,150,2014-02-05 09:47:00
4:52 AM,43.0,37.9,82,29.78,10.0,Variable,6.9,-,N/A,,Mostly Cloudy,0,2014-02-05 09:52:00
5:52 AM,44.1,39.0,82,29.74,10.0,Variable,4.6,-,0.00,,Mostly Cloudy,0,2014-02-05 10:52:00
6:52 AM,46.0,39.9,79,29.73,10.0,SSE,6.9,-,0.01,,Overcast,150,2014-02-05 11:52:00
7:25 AM,48.2,42.8,82,29.73,7.0,Calm,Calm,-,0.00,Rain,Light Rain,0,2014-02-05 12:25:00
7:52 AM,46.0,42.1,86,29.73,4.0,Calm,Calm,-,0.01,Rain,Light Rain,0,2014-02-05 12:52:00
7:55 AM,46.4,42.8,87,29.73,2.5,Calm,Calm,-,0.01,Rain,Light Rain,0,2014-02-05 12:55:00
8:03 AM,46.4,42.8,87,29.74,3.0,Calm,Calm,-,0.01,Rain,Light Rain,0,2014-02-05 13:03:00
8:11 AM,46.4,41.0,81,29.75,1.0,NNW,4.6,-,0.01,Rain,Light Rain,340,2014-02-05 13:11:00
8:18 AM,44.6,41.0,87,29.75,0.5,NW,3.5,-,0.02,Fog-Rain,Light Rain,320,2014-02-05 13:18:00
8:22 AM,46.4,41.0,81,29.74,1.2,Calm,Calm,-,0.02,Rain,Light Rain,0,2014-02-05 13:22:00
8:24 AM,46.4,42.8,87,29.75,2.0,Calm,Calm,-,0.02,Rain,Light Rain,0,2014-02-05 13:24:00
8:39 AM,50.0,46.4,87,29.75,7.0,WSW,15.0,20.7,0.02,,Overcast,250,2014-02-05 13:39:00
8:45 AM,51.8,46.4,82,29.74,10.0,WSW,15.0,28.8,0.02,,Overcast,250,2014-02-05 13:45:00
8:52 AM,52.0,46.9,83,29.74,10.0,WSW,16.1,31.1,0.02,,Overcast,250,2014-02-05 13:52:00
9:52 AM,53.1,46.0,77,29.75,10.0,West,18.4,26.5,0.00,,Overcast,260,2014-02-05 14:52:00
9:59 AM,53.6,44.6,72,29.77,10.0,West,18.4,29.9,N/A,,Overcast,260,2014-02-05 14:59:00
10:22 AM,48.2,42.8,82,29.79,10.0,WNW,15.0,20.7,N/A,,Overcast,290,2014-02-05 15:22:00
10:30 AM,48.2,42.8,82,29.79,10.0,WNW,17.3,25.3,N/A,,Overcast,300,2014-02-05 15:30:00
10:52 AM,46.9,41.0,80,29.79,10.0,WNW,12.7,27.6,N/A,,Overcast,290,2014-02-05 15:52:00
11:52 AM,46.9,39.9,77,29.78,10.0,West,10.4,19.6,N/A,,Overcast,280,2014-02-05 16:52:00
12:41 PM,48.2,37.4,66,29.77,10.0,NW,16.1,24.2,N/A,,Overcast,310,2014-02-05 17:41:00
12:52 PM,48.0,37.0,66,29.77,10.0,WNW,17.3,25.3,N/A,,Overcast,290,2014-02-05 17:52:00
1:52 PM,46.9,34.0,61,29.77,10.0,WNW,12.7,29.9,N/A,,Overcast,290,2014-02-05 18:52:00
2:35 PM,44.6,33.8,66,29.81,10.0,WNW,19.6,32.2,N/A,,Overcast,290,2014-02-05 19:35:00
2:45 PM,42.8,32.0,66,29.82,10.0,WNW,15.0,29.9,N/A,,Overcast,290,2014-02-05 19:45:00
2:52 PM,43.0,32.0,65,29.82,10.0,WNW,19.6,33.4,N/A,,Overcast,290,2014-02-05 19:52:00
3:52 PM,37.9,28.9,70,29.88,9.0,WNW,17.3,29.9,0.00,Snow,Light Snow,300,2014-02-05 20:52:00
4:24 PM,35.6,28.4,75,29.90,2.0,WNW,16.1,31.1,0.00,Snow,Light Snow,290,2014-02-05 21:24:00
4:42 PM,33.8,28.4,81,29.92,5.0,WNW,16.1,25.3,0.00,Snow,Light Snow,300,2014-02-05 21:42:00
4:52 PM,34.0,26.1,73,29.94,10.0,WNW,16.1,33.4,0.00,,Overcast,300,2014-02-05 21:52:00
5:52 PM,33.1,25.0,72,29.99,10.0,WNW,12.7,21.9,N/A,,Overcast,290,2014-02-05 22:52:00
6:41 PM,30.2,24.8,80,30.00,2.5,WNW,9.2,19.6,0.01,Snow,Light Snow,300,2014-02-05 23:41:00
6:52 PM,30.9,25.0,79,30.03,5.0,WNW,9.2,23.0,0.01,Snow,Light Snow,300,2014-02-05 23:52:00
7:14 PM,30.2,23.0,75,30.02,9.0,WNW,13.8,26.5,0.00,,Overcast,300,2014-02-06 00:14:00
7:40 PM,28.4,23.0,80,30.03,10.0,West,11.5,28.8,0.00,,Overcast,280,2014-02-06 00:40:00
7:52 PM,28.9,23.0,78,30.07,8.0,WNW,11.5,21.9,0.00,Snow,Light Snow,290,2014-02-06 00:52:00
8:12 PM,28.4,21.2,74,30.05,9.0,WNW,15.0,26.5,0.00,Snow,Light Snow,300,2014-02-06 01:12:00
8:52 PM,27.0,21.0,78,30.07,10.0,WNW,11.5,26.5,0.00,,Overcast,300,2014-02-06 01:52:00
9:43 PM,24.8,17.6,74,30.08,10.0,NW,15.0,26.5,0.00,,Overcast,310,2014-02-06 02:43:00
9:52 PM,25.0,18.0,75,30.10,10.0,NW,15.0,28.8,0.00,,Overcast,310,2014-02-06 02:52:00
10:52 PM,25.0,18.0,75,30.13,9.0,WNW,16.1,23.0,N/A,,Overcast,290,2014-02-06 03:52:00
11:52 PM,24.1,18.0,77,30.15,3.0,NW,10.4,20.7,0.00,Snow,Light Snow,310,2014-02-06 04:52:00